Overview Statistics Trail Chart Weather Telemetry Raw packets
 

This is the latest recevied weather packets stored in our database for station/object YM2KA-13. If no packets are shown the sender has not sent any weather packets the latest 10 day(s).

<< 28 29 30 31 32 33 34 >>
Time Temp. Humidity Pressure Rain* Wind** Luminosity Snow
1788432798 28.33° C 22% 1007.1 hPa 0 mm - - -
1788432676 28.33° C 21% 1007.1 hPa 0 mm - - -
1788432078 27.78° C 22% 1007.2 hPa 0 mm - - -
1788431895 27.78° C 24% 1007.3 hPa 0 mm - - -
1788431478 28.33° C 24% 1007.3 hPa 0 mm - - -
1788430991 27.78° C 27% 1007.5 hPa 0 mm - - -
1788430879 27.78° C 27% 1007.5 hPa 0 mm - - -
1788430281 27.78° C 27% 1007.7 hPa 0 mm - - -
1788430098 27.78° C 28% 1007.7 hPa 0 mm - - -
1788429681 27.78° C 27% 1007.8 hPa 0 mm - - -
1788429195 27.78° C 27% 1007.9 hPa 0 mm - - -
1788429083 27.78° C 26% 1007.9 hPa 0 mm - - -
1788428483 27.22° C 26% 1008.1 hPa 0 mm - - -
1788428290 27.22° C 25% 1008.3 hPa 0 mm - - -
1788427884 27.22° C 26% 1008.4 hPa 0 mm - - -
1788427396 27.22° C 27% 1008.5 hPa 0 mm - - -
1788427284 27.22° C 26% 1008.5 hPa 0 mm - - -
1788426675 27.22° C 23% 1008.7 hPa 0 mm - - -
1788426492 27.22° C 24% 1008.6 hPa 0 mm - - -
1788426076 26.67° C 24% 1008.8 hPa 0 mm - - -
1788425599 26.67° C 24% 1008.9 hPa 0 mm - - -
1788425477 26.67° C 23% 1008.9 hPa 0 mm - - -
1788424879 26.11° C 24% 1009 hPa 0 mm - - -
1788424696 26.11° C 24% 1009 hPa 0 mm - - -
1788424279 26.11° C 26% 1009.1 hPa 0 mm - - -

* Rain latest hour (hover to see other rain measurements)
** Current wind speed in m/s (hover to see current wind gust speed)